{"data":{"norad_id":62411,"epoch":"2026-09-21T17:33:21.758976Z","epoch_age_seconds":68170,"freshness":"FRESH","line1":"1 62411U 24249C   26264.73150184  .00188128  00000+0  14320-2 0  9993","line2":"2 62411  43.0006  65.9162 0002904 267.5479  92.5056 15.70916346100317","mean_motion":15.70916346,"eccentricity":0.0002904,"inclination_deg":43.0006,"raan_deg":65.9162,"arg_perigee_deg":267.5479,"mean_anomaly_deg":92.5056,"bstar":0.001432,"rev_number":10031,"period_min":91.666243315034,"perigee_km":354.32118546498,"apogee_km":358.23253303443,"semimajor_km":6734.4138592497,"source":"CELESTRAK","updated_at":"2026-09-22T09:00:49.575796Z"}}